Date Time,Air Temp,Sky Temp,Clarity,Light Level,Rain Sensor,Readings
2010-12-14 00:02:37,15.7,-10.2,25.8,0.0,2.6,112
2010-12-14 00:07:37,15.7,-7.6,23.3,0.0,2.5,112
2010-12-14 00:12:37,15.7,-7.4,23.1,0.0,2.3,111
2010-12-14 00:17:37,15.7,-7.8,23.5,0.0,2.3,111
2010-12-14 00:22:37,15.8,-7.8,23.6,0.0,2.3,112
2010-12-14 00:27:37,15.9,-7.9,23.8,0.0,2.3,111
2010-12-14 00:32:37,15.9,-7.7,23.6,0.0,2.3,111
2010-12-14 00:37:37,15.9,-9.3,25.2,0.0,2.3,112
2010-12-14 00:42:37,15.8,-11.0,26.8,0.0,2.3,112
2010-12-14 00:47:37,15.8,-13.5,29.3,0.0,2.3,112
2010-12-14 00:52:37,15.7,-14.0,29.7,0.0,2.3,111
2010-12-14 00:57:37,15.7,-12.0,27.7,0.0,2.3,111
2010-12-14 01:02:37,15.8,-9.7,25.5,0.0,2.3,112
2010-12-14 01:07:37,15.8,-9.3,25.1,0.0,2.3,112
2010-12-14 01:12:37,15.9,-9.0,24.9,0.0,2.3,112
2010-12-14 01:17:37,15.9,-8.9,24.8,0.0,2.3,111
2010-12-14 01:22:37,15.9,-9.9,25.7,0.0,2.3,112
2010-12-14 01:27:37,15.9,-9.0,24.9,0.0,2.3,112
2010-12-14 01:32:37,15.9,-7.4,23.3,0.0,2.3,111
2010-12-14 01:37:37,15.9,-6.6,22.5,0.0,2.3,112
2010-12-14 01:42:37,15.9,-6.0,21.9,0.0,2.3,112
2010-12-14 01:47:37,15.9,-7.7,23.7,0.0,2.3,112
2010-12-14 01:52:37,15.9,-8.5,24.4,0.0,2.3,111
2010-12-14 01:57:37,16.0,-7.2,23.2,0.0,2.3,112
2010-12-14 02:02:37,16.0,-7.1,23.1,0.0,2.3,112
2010-12-14 02:07:37,15.6,-5.7,21.3,0.0,2.3,112
2010-12-14 02:12:37,14.1,-5.5,19.7,0.0,2.4,111
2010-12-14 02:17:37,12.4,-2.9,15.3,0.0,1.9,112
2010-12-14 02:22:37,11.7,-5.8,17.5,0.0,1.7,111
2010-12-14 02:27:37,11.4,-4.9,16.3,0.0,2.2,112
2010-12-14 02:32:37,11.3,-2.7,14.1,0.0,2.3,112
2010-12-14 02:37:37,11.3,-1.7,13.0,0.0,2.3,112
2010-12-14 02:42:37,11.4,-5.2,16.6,0.0,2.3,111
2010-12-14 02:47:37,12.6,-7.3,19.9,0.0,2.0,112
2010-12-14 02:52:37,12.7,-5.3,18.0,0.0,1.6,111
2010-12-14 02:57:37,11.7,-4.6,16.3,0.0,2.1,111
2010-12-14 03:02:37,11.5,-5.0,16.5,0.0,2.3,112
2010-12-14 03:07:37,11.4,-4.2,15.5,0.0,2.3,112
2010-12-14 03:12:37,11.3,-3.0,14.3,0.0,2.3,111
2010-12-14 03:17:37,11.3,-2.8,14.1,0.0,2.3,112
2010-12-14 03:22:37,11.3,-2.3,13.6,0.0,2.3,112
2010-12-14 03:27:37,11.4,-1.6,13.0,0.0,2.3,111
2010-12-14 03:32:37,11.4,-1.2,12.6,0.0,2.3,112
2010-12-14 03:37:37,11.4,-1.3,12.7,0.0,2.3,112
2010-12-14 03:42:37,11.4,-1.7,13.2,0.0,2.3,111
2010-12-14 03:47:37,11.4,-2.3,13.7,0.0,2.3,112
2010-12-14 03:52:37,11.4,-3.5,14.9,0.0,2.3,111
2010-12-14 03:57:37,11.4,-3.1,14.5,0.0,2.3,112
2010-12-14 04:02:37,11.4,-2.7,14.1,0.0,2.3,112
2010-12-14 04:07:37,11.4,-1.9,13.3,0.0,2.3,112
2010-12-14 04:12:37,11.4,-2.0,13.4,0.0,2.3,112
2010-12-14 04:17:37,11.4,-1.9,13.2,0.0,2.3,111
2010-12-14 04:22:37,11.4,-2.1,13.5,0.0,2.3,112
2010-12-14 04:27:37,11.5,-2.9,14.4,0.0,3.1,111
2010-12-14 04:32:37,11.4,-3.7,15.1,0.0,2.4,112
2010-12-14 04:37:37,11.4,-1.4,12.8,0.0,2.3,112
2010-12-14 04:42:37,11.4,-1.9,13.3,0.0,2.3,111
2010-12-14 04:47:37,11.4,-3.1,14.6,0.0,2.3,111
2010-12-14 04:52:37,11.7,-6.1,17.8,0.0,2.3,112
2010-12-14 04:57:37,11.9,-4.0,16.0,0.0,2.3,112
2010-12-14 05:02:37,11.5,-2.7,14.2,0.0,2.3,112
2010-12-14 05:07:37,11.4,-3.8,15.2,0.0,2.3,111
2010-12-14 05:12:37,11.4,-6.0,17.4,0.0,2.3,112
2010-12-14 05:17:37,11.4,-4.3,15.7,0.0,2.4,111
2010-12-14 05:22:37,11.5,-5.7,17.2,0.0,2.3,112
2010-12-14 05:27:37,11.4,-4.3,15.7,0.0,2.3,112
2010-12-14 05:32:37,11.4,-3.3,14.6,0.0,2.4,112
2010-12-14 05:37:37,11.4,-4.3,15.8,0.0,2.3,111
2010-12-14 05:42:37,11.8,-6.8,18.7,0.0,2.3,112
2010-12-14 05:47:37,13.8,-5.8,19.7,0.0,1.8,112
2010-12-14 05:52:37,12.3,-5.2,17.5,0.0,1.8,112
2010-12-14 05:57:37,11.8,-6.2,18.0,0.0,2.2,111
2010-12-14 06:02:37,11.6,-5.4,17.0,0.0,2.3,112
2010-12-14 06:07:37,11.6,-2.7,14.3,0.0,2.3,111
2010-12-14 06:12:37,11.6,-2.2,13.8,0.0,2.3,112
2010-12-14 06:17:37,11.6,-2.5,14.1,0.0,2.3,111
2010-12-14 06:22:37,11.6,-3.3,15.0,0.0,2.3,112
2010-12-14 06:27:37,11.6,-2.2,13.8,0.0,2.3,112
2010-12-14 06:32:37,11.6,-3.5,15.1,0.0,2.3,112
2010-12-14 06:37:37,11.6,-2.2,13.9,0.0,2.3,112
2010-12-14 06:42:37,11.9,-7.7,19.6,0.0,2.3,111
2010-12-14 06:47:37,14.6,-11.5,26.1,0.1,2.0,112
2010-12-14 06:52:37,15.2,-4.4,19.6,0.1,2.3,112
2010-12-14 06:57:37,12.9,-1.7,14.6,0.2,1.7,111
2010-12-14 07:02:37,12.1,-1.6,13.7,0.4,2.1,112
2010-12-14 07:07:37,11.8,-2.0,13.8,0.8,2.3,112
2010-12-14 07:12:37,11.7,-5.2,17.0,1.8,2.3,111
2010-12-14 07:17:37,11.7,-4.6,16.3,3.2,2.3,112
2010-12-14 07:22:37,11.6,-4.0,15.6,5.4,2.3,112
2010-12-14 07:27:37,11.7,-6.4,18.1,9.3,2.4,111
2010-12-14 07:32:37,11.9,-3.9,15.8,13.2,2.3,112
2010-12-14 07:37:37,11.7,-3.5,15.2,18.5,2.3,112
2010-12-14 07:42:37,11.7,-1.8,13.5,22.2,2.3,111
2010-12-14 07:47:37,11.7,-1.8,13.4,25.2,2.3,112
2010-12-14 07:52:37,11.7,-1.2,12.9,27.1,2.3,111
2010-12-14 07:57:37,11.7,-1.7,13.4,28.7,2.3,112
2010-12-14 08:02:37,11.7,-1.3,12.9,29.5,2.4,111
2010-12-14 08:07:37,11.6,-1.8,13.5,30.3,2.4,112
2010-12-14 08:12:37,11.6,-4.5,16.1,30.9,2.4,111
2010-12-14 08:17:37,13.3,-12.2,25.5,31.4,2.1,112
2010-12-14 08:22:37,15.5,-12.5,27.9,31.6,2.0,111
2010-12-14 08:27:37,13.8,-3.1,17.0,31.5,1.8,112
2010-12-14 08:32:37,12.2,-1.5,13.8,31.4,2.3,112
2010-12-14 08:37:37,11.9,-0.6,12.5,31.0,2.3,112
2010-12-14 08:42:37,11.8,-0.7,12.5,31.4,2.3,111
2010-12-14 08:47:37,11.7,-0.6,12.4,31.6,2.4,112
2010-12-14 08:52:37,11.8,-0.5,12.3,31.8,2.4,112
2010-12-14 08:57:37,11.8,-0.6,12.4,32.0,2.8,112
2010-12-14 09:02:37,11.8,-0.4,12.2,32.0,2.4,112
2010-12-14 09:07:37,11.8,-0.2,12.0,31.9,2.3,112
2010-12-14 09:12:37,11.8,-0.2,12.1,31.8,2.3,112
2010-12-14 09:17:37,11.8,-0.1,11.9,32.0,2.3,112
2010-12-14 09:22:37,11.9,0.0,11.8,32.0,2.3,111
2010-12-14 09:27:37,11.9,-0.2,12.0,32.0,2.3,112
2010-12-14 09:32:37,11.9,-0.3,12.2,32.0,2.3,112
2010-12-14 09:37:37,12.0,-1.6,13.5,32.1,2.3,112
2010-12-14 09:42:38,12.0,-3.0,15.1,32.3,2.3,112
2010-12-14 09:47:38,12.1,-0.6,12.7,32.2,2.3,112
2010-12-14 09:52:38,12.1,-3.7,15.8,32.3,2.4,111
2010-12-14 09:57:38,12.2,-1.9,14.2,32.3,2.3,112
2010-12-14 10:02:38,12.3,-2.6,14.8,32.3,2.3,112
2010-12-14 10:07:38,12.6,-7.1,19.8,32.4,2.2,112
2010-12-14 10:12:38,15.8,-11.5,27.3,32.5,2.2,111
2010-12-14 10:17:38,17.2,-6.7,23.9,32.4,2.3,112
2010-12-14 10:22:38,17.7,-6.9,24.5,32.4,2.3,111
2010-12-14 10:27:38,18.0,-3.3,21.2,32.5,2.3,112
2010-12-14 10:32:38,17.0,-1.9,18.9,32.4,2.3,112
2010-12-14 10:37:38,14.4,-2.0,16.4,32.4,2.4,111
2010-12-14 10:42:38,13.6,-4.2,17.8,32.4,2.3,111
2010-12-14 10:47:38,13.3,-2.7,16.0,32.4,2.2,112
2010-12-14 10:52:38,13.1,-1.0,14.0,32.3,1.9,112
2010-12-14 10:57:38,13.0,-1.0,14.1,32.3,1.8,112
2010-12-14 11:02:38,13.0,-1.0,13.9,32.3,1.8,112
2010-12-14 11:07:38,13.1,-0.5,13.6,32.5,1.8,112
2010-12-14 11:12:38,13.3,-0.8,14.2,32.4,2.0,112
2010-12-14 11:17:38,13.3,-1.4,14.7,32.4,2.1,111
2010-12-14 11:22:38,13.1,-1.2,14.3,32.4,1.9,111
2010-12-14 11:27:38,13.1,-1.2,14.3,32.4,1.8,112
2010-12-14 11:32:38,13.1,-1.0,14.0,32.4,1.9,112
2010-12-14 11:37:38,13.0,-1.1,14.1,32.3,1.8,111
2010-12-14 11:42:38,12.9,-1.1,14.0,32.3,1.8,112
2010-12-14 11:47:38,12.9,-1.3,14.2,32.3,1.8,111
2010-12-14 11:52:38,12.9,-2.0,14.8,32.4,1.7,112
2010-12-14 11:57:38,12.9,-1.9,14.9,32.4,1.8,112
2010-12-14 12:02:38,13.0,-2.5,15.5,32.4,1.8,111
2010-12-14 12:07:38,13.0,-2.9,15.9,32.4,1.8,112
2010-12-14 12:12:38,13.0,-2.1,15.1,32.4,1.8,112
2010-12-14 12:17:38,12.9,-1.3,14.2,32.4,1.8,111
2010-12-14 12:22:38,13.2,-0.9,14.0,32.3,1.8,112
2010-12-14 12:27:38,13.1,-0.9,14.0,32.2,1.9,111
2010-12-14 12:32:38,13.0,-0.9,13.9,32.2,2.0,112
2010-12-14 12:37:38,12.9,-0.9,13.8,32.2,2.4,112
2010-12-14 12:42:38,12.8,-0.6,13.5,32.2,1.8,112
2010-12-14 12:47:38,12.8,-0.6,13.4,32.1,1.7,111
2010-12-14 12:52:38,12.8,-0.4,13.2,32.1,1.7,112
2010-12-14 12:57:38,12.8,-1.1,13.9,32.3,1.6,112
2010-12-14 13:02:38,12.9,-2.4,15.3,32.4,1.8,112
2010-12-14 13:07:38,13.0,-0.9,13.8,32.2,2.0,112
2010-12-14 13:12:38,12.9,-0.5,13.3,32.3,3.1,111
2010-12-14 13:17:38,12.8,-2.6,15.4,32.4,1.8,112
2010-12-14 13:22:38,12.8,-3.4,16.2,32.4,1.6,112
2010-12-14 13:27:38,12.8,-3.7,16.5,32.4,1.6,112
2010-12-14 13:32:38,12.9,-3.9,16.8,32.4,1.6,111
2010-12-14 13:37:38,12.9,-4.3,17.2,32.4,1.6,112
2010-12-14 13:42:38,13.0,-3.6,16.6,32.4,1.6,112
2010-12-14 13:47:38,13.0,-5.1,18.2,32.4,1.7,111
2010-12-14 13:52:38,13.6,-6.9,20.5,32.4,1.8,112
2010-12-14 13:57:38,16.5,-8.6,25.1,32.4,2.3,112
2010-12-14 14:02:38,17.4,-10.1,27.5,32.4,2.3,111
2010-12-14 14:07:38,17.8,-9.3,27.2,32.4,2.3,112
2010-12-14 14:12:38,18.0,-13.2,31.2,32.4,2.3,111
2010-12-14 14:17:38,17.9,-11.0,28.9,32.4,2.3,112
2010-12-14 14:22:38,18.1,-8.9,27.0,32.4,2.3,112
2010-12-14 14:27:38,18.2,-6.1,24.3,32.4,2.3,111
2010-12-14 14:32:38,18.3,-7.7,26.0,32.3,2.3,112
2010-12-14 14:37:38,18.3,-4.9,23.2,32.3,2.3,111
2010-12-14 14:42:38,18.2,-7.0,25.2,32.3,2.3,112
2010-12-14 14:47:38,18.2,-8.9,27.1,32.3,2.5,111
2010-12-14 14:52:38,18.1,-8.2,26.2,32.3,2.3,112
2010-12-14 14:57:38,17.9,-6.5,24.4,32.2,2.3,111
2010-12-14 15:02:38,17.8,-7.2,25.0,32.1,2.3,112
2010-12-14 15:07:38,17.7,-8.5,26.2,32.2,2.3,112
2010-12-14 15:12:38,17.6,-11.2,28.8,32.1,2.3,111
2010-12-14 15:17:38,17.5,-13.1,30.6,32.1,2.3,112
2010-12-14 15:22:38,17.5,-11.7,29.2,32.1,2.3,111
2010-12-14 15:27:38,17.5,-8.3,25.8,32.0,2.3,112
2010-12-14 15:32:38,17.3,-7.2,24.6,31.9,2.3,111
2010-12-14 15:37:38,17.2,-7.2,24.4,31.7,2.3,112
2010-12-14 15:42:38,17.2,-6.3,23.6,31.4,2.3,112
2010-12-14 15:47:38,17.3,-6.2,23.5,31.2,2.3,111
2010-12-14 15:52:38,17.1,-6.5,23.7,30.8,2.3,112
2010-12-14 15:57:38,17.1,-6.5,23.6,30.3,2.3,112
2010-12-14 16:02:38,17.0,-6.2,23.2,29.6,2.3,112
2010-12-14 16:07:38,17.0,-5.9,22.9,28.5,2.3,111
2010-12-14 16:12:38,17.0,-5.6,22.6,26.9,2.3,112
2010-12-14 16:17:38,17.1,-6.1,23.2,24.4,2.3,111
2010-12-14 16:22:38,17.0,-6.2,23.1,20.6,2.3,112
2010-12-14 16:27:38,16.9,-6.1,23.0,15.8,2.3,112
2010-12-14 16:32:38,16.9,-5.7,22.6,10.5,2.3,111
2010-12-14 16:37:38,16.9,-6.0,22.9,6.6,2.3,111
2010-12-14 16:42:38,16.9,-6.2,23.1,3.9,2.3,112
2010-12-14 16:47:38,16.9,-6.4,23.3,2.2,2.3,112
2010-12-14 16:52:38,16.9,-5.9,22.8,1.2,2.3,111
2010-12-14 16:57:38,16.9,-7.2,24.1,0.7,2.3,112
2010-12-14 17:02:38,16.9,-9.2,26.1,0.5,2.3,112
2010-12-14 17:07:38,16.8,-11.7,28.6,0.4,2.3,111
2010-12-14 17:12:38,16.5,-12.8,29.3,0.3,2.3,112
2010-12-14 17:17:38,16.7,-11.5,28.2,0.3,2.3,111
2010-12-14 17:22:38,16.8,-10.0,26.8,0.2,2.3,112
2010-12-14 17:27:38,16.8,-10.2,26.9,0.2,2.3,112
2010-12-14 17:32:38,16.8,-9.8,26.6,0.2,2.3,112
2010-12-14 17:37:38,16.8,-9.7,26.4,0.2,2.3,112
2010-12-14 17:42:38,16.8,-8.2,24.9,0.2,2.3,111
2010-12-14 17:47:38,16.8,-9.6,26.4,0.2,2.3,112
2010-12-14 17:52:38,16.8,-9.8,26.5,0.2,2.3,113
2010-12-14 17:57:38,16.8,-9.1,25.8,0.2,2.3,111
2010-12-14 18:02:38,16.8,-7.6,24.4,0.2,2.3,112
2010-12-14 18:07:38,16.8,-7.4,24.2,0.2,2.4,111
2010-12-14 18:12:38,16.8,-6.7,23.5,0.2,2.3,112
2010-12-14 18:17:38,16.8,-5.7,22.6,0.2,2.3,111
2010-12-14 18:22:38,16.9,-5.7,22.6,0.2,2.3,112
2010-12-14 18:27:38,17.0,-5.9,22.8,0.2,2.3,111
2010-12-14 18:32:38,17.1,-5.5,22.6,0.2,2.3,111
2010-12-14 18:37:38,17.2,-5.0,22.2,0.2,2.3,112
2010-12-14 18:42:38,17.3,-5.0,22.3,0.2,2.3,111
2010-12-14 18:47:38,17.4,-4.8,22.2,0.2,2.3,112
2010-12-14 18:52:38,17.5,-4.9,22.4,0.2,2.3,111
2010-12-14 18:57:38,17.5,-5.1,22.6,0.2,2.3,111
2010-12-14 19:02:38,17.6,-5.9,23.5,0.2,2.3,112
2010-12-14 19:07:38,17.7,-6.4,24.1,0.2,2.3,112
2010-12-14 19:12:38,17.7,-5.1,22.8,0.2,2.3,111
2010-12-14 19:17:38,17.6,-5.7,23.4,0.2,2.3,111
2010-12-14 19:22:38,17.6,-6.4,24.0,0.2,2.3,112
2010-12-14 19:27:38,17.5,-6.3,23.8,0.2,2.3,112
2010-12-14 19:32:38,17.4,-5.5,22.9,0.2,2.3,112
2010-12-14 19:37:38,17.4,-5.3,22.7,0.2,2.3,111
2010-12-14 19:42:38,17.4,-4.6,22.0,0.2,2.3,112
2010-12-14 19:47:38,17.5,-4.7,22.2,0.2,2.3,112
2010-12-14 19:52:38,17.5,-5.3,22.8,0.2,2.3,111
2010-12-14 19:57:38,17.5,-5.0,22.5,0.2,2.3,111
2010-12-14 20:02:38,17.4,-5.5,22.9,0.2,2.3,111
2010-12-14 20:07:38,17.3,-5.7,22.9,0.2,2.3,112
2010-12-14 20:12:38,17.3,-5.6,22.9,0.2,2.3,111
2010-12-14 20:17:38,17.2,-5.7,23.0,0.2,2.3,112
2010-12-14 20:22:38,17.0,-6.0,23.0,0.2,2.3,112
2010-12-14 20:27:38,16.9,-6.6,23.5,0.2,2.3,111
2010-12-14 20:32:38,16.9,-6.8,23.7,0.2,2.3,112
2010-12-14 20:37:38,16.8,-7.4,24.3,0.2,2.3,111
2010-12-14 20:42:38,16.8,-7.2,24.1,0.2,2.4,112
2010-12-14 20:47:38,16.8,-7.3,24.2,0.2,2.4,111
2010-12-14 20:52:38,16.8,-7.1,23.9,0.2,2.4,112
2010-12-14 20:57:38,16.8,-6.7,23.5,0.2,2.4,112
2010-12-14 21:02:38,16.7,-6.6,23.3,0.2,2.4,112
2010-12-14 21:07:38,16.7,-7.3,24.0,0.2,2.4,111
2010-12-14 21:12:38,16.7,-7.9,24.7,0.2,2.4,111
2010-12-14 21:17:38,16.8,-7.6,24.4,0.2,2.4,112
2010-12-14 21:22:38,16.9,-7.0,23.9,0.2,2.4,112
2010-12-14 21:27:38,16.9,-6.2,23.2,0.2,2.4,111
2010-12-14 21:32:38,17.2,-6.3,23.4,0.2,2.3,112
2010-12-14 21:37:38,17.4,-5.8,23.2,0.2,2.3,112
2010-12-14 21:42:38,17.5,-5.9,23.4,0.2,2.3,111
2010-12-14 21:47:38,17.6,-6.0,23.6,0.2,2.3,112
2010-12-14 21:52:38,17.6,-6.4,24.1,0.2,2.3,111
2010-12-14 21:57:38,17.6,-6.7,24.3,0.2,2.3,112
2010-12-14 22:02:38,17.5,-7.3,24.8,0.2,2.3,112
2010-12-14 22:07:38,17.3,-7.6,24.9,0.2,2.3,111
2010-12-14 22:12:38,17.2,-8.2,25.4,0.2,2.3,112
2010-12-14 22:17:38,17.0,-10.1,27.1,0.2,2.3,112
2010-12-14 22:22:38,16.9,-11.2,28.1,0.2,2.3,111
2010-12-14 22:27:38,16.8,-11.2,28.0,0.2,2.4,111
2010-12-14 22:32:38,16.8,-10.9,27.7,0.2,2.4,112
2010-12-14 22:37:38,16.9,-8.5,25.4,0.2,2.4,111
2010-12-14 22:42:38,16.9,-8.9,25.8,0.2,2.4,112
2010-12-14 22:47:38,17.1,-8.6,25.7,0.2,2.3,112
2010-12-14 22:52:38,17.0,-8.5,25.5,0.2,2.3,112
2010-12-14 22:57:38,17.1,-8.5,25.6,0.1,2.3,112
2010-12-14 23:02:38,17.0,-9.1,26.1,0.1,2.3,112
2010-12-14 23:07:38,16.9,-10.0,26.9,0.1,2.3,112
2010-12-14 23:12:38,16.8,-12.0,28.9,0.1,2.4,111
2010-12-14 23:17:38,16.7,-15.5,32.2,0.1,2.4,112
2010-12-14 23:22:38,16.5,-15.3,31.8,0.1,2.3,112
2010-12-14 23:27:38,16.3,-14.1,30.4,0.1,2.3,112
2010-12-14 23:32:38,16.3,-13.2,29.6,0.1,2.2,111
2010-12-14 23:37:38,16.3,-14.2,30.5,0.1,2.2,112
2010-12-14 23:42:38,16.3,-16.5,32.8,0.1,2.2,111
2010-12-14 23:47:38,16.2,-17.1,33.4,0.1,2.2,112
2010-12-14 23:52:38,16.1,-16.6,32.7,0.1,2.2,112
2010-12-14 23:57:38,16.0,-17.2,33.2,0.1,2.2,111
